Location: Byhalia Creek
(34.8270°N, 89.8040°W)
Time: 09:06:39
(UTC+00:00)

SL-16 R/B - Pass Details

Date: 22 April 2026
Orbit: 985 x 1006 km, 99.8° (Epoch: 15 May)

Event Time Altitude Azimuth Distance (km) Brightness Sun altitude
Rises 09:08:58 0° 140° (SE) 3,716 5.6 -24.7°
Reaches altitude 10° 09:11:38 10° 132° (SE) 2,771 5.0 -24.2°
Maximum altitude 09:17:13 36° 68° (ENE) 1,537 4.1 -23.3°
Drops below altitude 10° 09:22:50 10° 4° (N) 2,787 5.4 -22.4°
Sets 09:25:30 0° 356° (N) 3,740 6.0 -21.9°
